Location: Ebenezer
(18.2167°N, 63.0667°W)
Time: 00:30:55
(UTC+00:00)

USA 234 - Pass Details

Date: 26 January 2020
Orbit: 1100 x 1107 km, 123.0° (Epoch: 20 February)

Event Time Altitude Azimuth Distance (km) Brightness Sun altitude
Exits shadow 22:52:11 - 108° (ESE) 3,125 5.1 -12.0°
Reaches altitude 10° 22:52:43 10° 106° (ESE) 2,948 5.0 -12.1°
Maximum altitude 22:58:20 32° 46° (NE) 1,791 3.9 -13.4°
Drops below altitude 10° 23:03:56 10° 346° (NNW) 2,952 5.5 -14.6°
Sets 23:06:41 0° 337° (NNW) 3,911 6.3 -15.3°
